TimeAKDT,TemperatureF,Dew PointF,Humidity,Sea Level PressureIn,VisibilityMPH,Wind Direction,Wind SpeedMPH,Gust SpeedMPH,PrecipitationIn,Events,Conditions,WindDirDegrees,DateUTC
12:16 AM,62.6,57.2,82,30.13,10.0,Calm,Calm,-,N/A,,Overcast,0,2013-07-20 08:16:00
12:36 AM,60.8,57.2,88,30.13,10.0,Calm,Calm,-,N/A,,Overcast,0,2013-07-20 08:36:00
12:56 AM,62.6,55.4,77,30.14,10.0,SW,3.5,-,N/A,,Mostly Cloudy,220,2013-07-20 08:56:00
1:16 AM,59.0,55.4,88,30.14,10.0,Calm,Calm,-,N/A,,Overcast,0,2013-07-20 09:16:00
1:36 AM,62.6,55.4,77,30.13,10.0,Calm,Calm,-,N/A,,Overcast,0,2013-07-20 09:36:00
1:56 AM,62.6,53.6,72,30.13,10.0,South,8.1,-,N/A,,Overcast,190,2013-07-20 09:56:00
2:16 AM,60.8,53.6,77,30.13,10.0,South,6.9,-,N/A,,Overcast,190,2013-07-20 10:16:00
2:36 AM,60.8,53.6,77,30.12,10.0,South,4.6,-,N/A,,Overcast,170,2013-07-20 10:36:00
2:56 AM,60.8,53.6,77,30.12,10.0,SSE,4.6,-,N/A,,Overcast,150,2013-07-20 10:56:00
3:16 AM,60.8,55.4,82,30.12,10.0,NE,6.9,-,N/A,,Overcast,40,2013-07-20 11:16:00
3:36 AM,59.0,55.4,88,30.13,10.0,Calm,Calm,-,N/A,,Overcast,0,2013-07-20 11:36:00
3:56 AM,59.0,55.4,88,30.13,10.0,SSE,3.5,-,N/A,,Overcast,160,2013-07-20 11:56:00
4:16 AM,59.0,53.6,82,30.13,10.0,South,4.6,-,N/A,,Overcast,190,2013-07-20 12:16:00
4:36 AM,57.2,53.6,88,30.13,10.0,WSW,5.8,-,N/A,,Overcast,250,2013-07-20 12:36:00
4:56 AM,57.2,53.6,88,30.14,10.0,SW,5.8,-,N/A,,Overcast,230,2013-07-20 12:56:00
5:16 AM,57.2,55.4,94,30.13,10.0,SSW,6.9,-,N/A,,Overcast,200,2013-07-20 13:16:00
5:36 AM,57.2,53.6,88,30.12,10.0,South,8.1,-,N/A,,Overcast,190,2013-07-20 13:36:00
5:56 AM,57.2,53.6,88,30.12,10.0,South,5.8,-,N/A,,Overcast,190,2013-07-20 13:56:00
6:16 AM,57.2,53.6,88,30.12,10.0,South,3.5,-,N/A,,Mostly Cloudy,180,2013-07-20 14:16:00
6:36 AM,55.4,53.6,94,30.12,10.0,Calm,Calm,-,N/A,,Partly Cloudy,0,2013-07-20 14:36:00
6:56 AM,57.2,53.6,88,30.12,10.0,Calm,Calm,-,N/A,,Mostly Cloudy,0,2013-07-20 14:56:00
11:36 AM,62.6,51.8,68,30.13,10.0,WSW,6.9,-,N/A,,Clear,240,2013-07-20 19:36:00
11:56 AM,62.6,51.8,68,30.12,10.0,SSW,8.1,-,N/A,,Scattered Clouds,200,2013-07-20 19:56:00
12:16 PM,64.4,50.0,59,30.12,10.0,WSW,6.9,-,N/A,,Partly Cloudy,240,2013-07-20 20:16:00
12:36 PM,66.2,46.4,49,30.12,10.0,South,4.6,-,N/A,,Clear,180,2013-07-20 20:36:00
12:56 PM,66.2,44.6,46,30.12,10.0,West,4.6,-,N/A,,Clear,270,2013-07-20 20:56:00
1:36 PM,66.2,44.6,46,30.12,10.0,Calm,Calm,-,N/A,,Clear,0,2013-07-20 21:36:00
1:56 PM,66.2,46.4,49,30.12,10.0,Calm,Calm,-,N/A,,Clear,0,2013-07-20 21:56:00
2:16 PM,68.0,48.2,49,30.11,10.0,SW,5.8,-,N/A,,Clear,230,2013-07-20 22:16:00
2:36 PM,69.8,48.2,46,30.11,10.0,WSW,4.6,-,N/A,,Clear,240,2013-07-20 22:36:00
2:56 PM,69.8,51.8,53,30.10,10.0,West,8.1,-,N/A,,Clear,260,2013-07-20 22:56:00
3:16 PM,69.8,51.8,53,30.10,10.0,SW,9.2,-,N/A,,Mostly Cloudy,230,2013-07-20 23:16:00
3:36 PM,68.0,50.0,52,30.10,10.0,WSW,6.9,-,N/A,,Mostly Cloudy,240,2013-07-20 23:36:00
3:56 PM,64.4,53.6,68,30.11,10.0,West,3.5,-,N/A,,Overcast,260,2013-07-20 23:56:00
4:16 PM,64.4,53.6,68,30.11,10.0,South,4.6,-,N/A,,Overcast,180,2013-07-21 00:16:00
4:36 PM,64.4,55.4,73,30.09,10.0,South,5.8,-,N/A,,Mostly Cloudy,180,2013-07-21 00:36:00
4:56 PM,66.2,51.8,60,30.09,10.0,SSW,5.8,-,N/A,,Partly Cloudy,210,2013-07-21 00:56:00
5:16 PM,68.0,50.0,52,30.09,10.0,SW,6.9,-,N/A,,Clear,220,2013-07-21 01:16:00
5:36 PM,69.8,48.2,46,30.08,10.0,SW,5.8,-,N/A,,Clear,220,2013-07-21 01:36:00
5:56 PM,69.8,48.2,46,30.08,10.0,WSW,5.8,-,N/A,,Clear,240,2013-07-21 01:56:00
6:16 PM,71.6,48.2,43,30.07,10.0,WSW,5.8,-,N/A,,Clear,240,2013-07-21 02:16:00
6:36 PM,69.8,48.2,46,30.07,10.0,SSW,8.1,-,N/A,,Clear,200,2013-07-21 02:36:00
6:56 PM,69.8,48.2,46,30.07,10.0,SW,5.8,-,N/A,,Clear,230,2013-07-21 02:56:00
7:16 PM,71.6,48.2,43,30.07,10.0,SSW,10.4,-,N/A,,Mostly Cloudy,200,2013-07-21 03:16:00